Location: Unspecified
(0.0000°N, 0.0000°E)
Time: 09:20:13
(UTC+00:00)

Transit 4A - All Passes

Search period start: 22 April 2024 00:00
Search period end: 02 May 2024 00:00
Orbit: 871 x 972 km, 66.8° (Epoch: 21 April)

Date Brightness Start Highest point End Pass type
(mag) Time Alt. Az. Time Alt. Az. Time Alt. Az.
22 Apr - 09:53:44 10° SSE 09:59:01 29° ESE 10:04:10 10° NE daylight
22 Apr - 11:40:14 10° WSW 11:45:05 24° WNW 11:49:49 10° NNW daylight
22 Apr - 22:50:12 10° NNW 22:56:04 64° WSW 23:02:07 10° S night (unlit)
23 Apr - 10:02:04 10° S 10:08:03 49° ESE 10:13:53 10° NE daylight
23 Apr - 11:51:11 10° W 11:54:05 14° WNW 11:56:57 10° NW daylight
23 Apr - 21:15:18 10° NNE 21:19:04 17° ENE 21:22:52 10° ESE night (unlit)
23 Apr - 22:59:39 10° NW 23:05:05 37° WSW 23:10:40 10° S night (unlit)
24 Apr - 10:10:49 10° SSW 10:17:03 83° ESE 10:23:08 10° NNE daylight
24 Apr - 21:22:58 10° N 21:28:04 30° ENE 21:33:15 10° SE night (unlit)
24 Apr - 23:09:39 10° WNW 23:14:07 22° WSW 23:18:42 10° SSW night (unlit)
25 Apr - 08:38:21 10° SE 08:39:52 11° ESE 08:41:23 10° E daylight
25 Apr - 10:19:56 10° SSW 10:26:03 59° WNW 10:31:59 10° N daylight
25 Apr - 21:31:19 10° N 21:37:03 51° ENE 21:42:57 10° SE night (unlit)
25 Apr - 23:20:52 10° W 23:23:12 12° WSW 23:25:33 10° SW night (unlit)
26 Apr - 08:44:34 10° SSE 08:48:57 20° ESE 08:53:14 10° ENE daylight
26 Apr - 10:29:30 10° SW 10:35:02 34° WNW 10:40:27 10° N daylight
26 Apr - 21:40:05 10° NNW 21:46:02 88° ENE 21:52:10 10° SSE night (unlit)
27 Apr - 08:52:27 10° S 08:58:00 34° ESE 09:03:23 10° NE daylight
27 Apr - 10:39:39 10° WSW 10:44:02 20° WNW 10:48:21 10° NNW daylight
27 Apr - 20:07:18 10° NE 20:09:00 11° ENE 20:10:44 10° E visible
27 Apr - 21:49:15 10° NNW 21:55:02 54° WSW 22:01:00 10° S night (unlit)
28 Apr - 09:00:55 10° S 09:07:02 57° ESE 09:12:56 10° NNE daylight
28 Apr - 10:51:27 10° W 10:53:02 11° WNW 10:54:38 10° NW daylight
28 Apr - 20:13:44 10° NNE 20:18:01 21° ENE 20:22:23 10° ESE visible
28 Apr - 21:58:50 10° NW 22:04:03 32° WSW 22:09:24 10° S night (unlit)
29 Apr - 09:09:47 10° SSW 09:16:01 85° WNW 09:22:04 10° NNE daylight
29 Apr - 20:21:39 10° N 20:27:00 35° ENE 20:32:30 10° SE visible
29 Apr - 22:09:04 10° WNW 22:13:05 19° WSW 22:17:13 10° SSW night (unlit)
30 Apr - 07:36:02 10° SE 07:38:51 13° ESE 07:41:37 10° E daylight
30 Apr - 09:19:02 10° SW 09:25:00 50° WNW 09:30:48 10° N daylight
30 Apr - 20:30:08 10° N 20:36:00 61° ENE 20:42:01 10° SSE visible
01 May - 07:43:07 10° SSE 07:47:55 23° ESE 07:52:37 10° ENE daylight
01 May - 09:28:44 10° SW 09:33:59 29° WNW 09:39:07 10° NNW daylight
01 May - 20:39:01 10° NNW 20:44:58 79° WSW 20:51:07 10° SSE visible
